Location: Ceske Budejovice
(48.9830°N, 14.4670°E)
Time: 06:42:39
(UTC+02:00)

DX 1 - Pass Details

Date: 22 August 2019
Orbit: 620 x 630 km, 98.4° (Epoch: 22 September)

Event Time Altitude Azimuth Distance (km) Brightness Sun altitude
Rises 05:17:34 0° 195° (SSW) 2,884 ? -7.8°
Reaches altitude 10° 05:20:02 10° 208° (SSW) 1,983 ? -7.4°
Maximum altitude 05:23:39 26° 265° (W) 1,232 ? -6.9°
Drops below altitude 10° 05:27:19 10° 323° (NW) 2,000 ? -6.3°
Sets 05:29:49 0° 336° (NNW) 2,913 ? -6.0°
